N7WWK-1 Weather Reports


Display with metric or nautical units.
time (UTC)temp
F
wind
direction
speed
MPH
gust
MPH
rain 1hr
in
rain 24hr
in
rain mn
in
humidity
%
barometer
mb
20260831042005 79 76 0.0 1.0 0.00 0.00 0.00 96 1015.6
20260831040029 79 73 0.0 1.0 0.00 0.00 0.00 96 1015.6
20260831035217 78 73 0.0 1.0 0.00 0.00 0.00 95 1015.7
20260831034004 78 0 0.0 0.0 0.00 0.00 0.00 95 1015.7
20260831033005 79 75 0.0 1.0 0.00 0.00 0.00 95 1015.9
20260831032004 79 78 0.0 2.0 0.00 0.00 0.00 94 1016.2
20260831031005 79 80 0.0 1.0 0.00 0.00 0.00 94 1015.9
20260831030005 79 74 1.0 2.0 0.00 0.00 0.00 94 1016.0
20260831025005 79 71 0.0 2.0 0.00 0.00 0.00 94 1016.0
20260831024004 79 79 0.0 1.0 0.00 0.00 0.00 93 1016.2
20260831023004 79 74 1.0 3.0 0.00 0.00 0.00 93 1015.9
20260831022005 79 73 1.0 3.0 0.00 0.00 0.00 93 1016.1
20260831021005 79 78 0.0 3.0 0.00 0.00 0.00 92 1016.2
20260831020005 80 74 0.0 2.0 0.00 0.00 0.00 92 1016.2
20260831015219 80 67 1.0 3.0 0.00 0.00 0.00 91 1016.2
20260831014004 80 73 1.0 4.0 0.00 0.00 0.00 91 1016.2
20260831013215 80 76 1.0 3.0 0.00 0.00 0.00 90 1016.2
20260831012005 80 76 1.0 4.0 0.00 0.00 0.00 89 1016.4
20260831011005 81 77 1.0 3.0 0.00 0.00 0.00 89 1016.4
20260831010005 81 76 1.0 3.0 0.00 0.00 0.00 89 1016.5
20260831005214 81 80 0.0 3.0 0.00 0.00 0.00 89 1016.3
20260831004005 81 70 1.0 2.0 0.00 0.00 0.00 89 1016.0
20260831003005 81 74 1.0 6.0 0.00 0.00 0.00 89 1015.6
20260831002005 81 77 1.0 3.0 0.00 0.00 0.00 89 1015.7
20260831001005 81 70 1.0 4.0 0.00 0.00 0.00 89 1015.7
20260831000005 82 75 1.0 3.0 0.00 0.00 0.00 89 1016.0
20260830235005 82 70 1.0 2.0 0.00 0.00 0.00 88 1015.9
20260830234216 82 74 1.0 4.0 0.00 0.00 0.00 88 1015.7
20260830233005 82 78 1.0 2.0 0.00 0.00 0.00 87 1015.5
20260830232004 82 74 1.0 3.0 0.00 0.00 0.00 87 1015.7
20260830231005 83 77 1.0 7.0 0.00 0.00 0.00 86 1015.6
20260830230005 83 90 1.0 4.0 0.00 0.00 0.00 85 1015.6
20260830225005 84 86 2.0 7.0 0.00 0.00 0.00 84 1015.3
20260830224005 84 78 2.0 7.0 0.00 0.00 0.00 82 1015.3
20260830223004 85 73 2.0 6.0 0.00 0.00 0.00 81 1015.6
20260830222004 85 81 2.0 7.0 0.00 0.00 0.00 79 1015.1
20260830221005 85 88 2.0 5.0 0.00 0.00 0.00 77 1015.2
20260830220005 86 72 2.0 8.0 0.00 0.00 0.00 75 1015.1
20260830215216 87 80 2.0 8.0 0.00 0.00 0.00 73 1014.7
20260830214217 87 79 3.0 7.0 0.00 0.00 0.00 72 1014.7
20260830213004 87 82 3.0 8.0 0.00 0.00 0.00 71 1014.8
20260830212005 88 78 3.0 10.0 0.00 0.00 0.00 70 1014.7
20260830211004 88 74 3.0 9.0 0.00 0.00 0.00 69 1014.8
20260830210005 90 89 1.0 4.0 0.00 0.00 0.00 69 1014.7
20260830205004 88 82 1.0 6.0 0.00 0.00 0.00 71 1014.8
20260830204004 88 73 3.0 10.0 0.00 0.00 0.00 72 1014.8
20260830203005 87 78 2.0 7.0 0.00 0.00 0.00 73 1014.7
20260830202004 86 75 2.0 6.0 0.00 0.00 0.00 77 1015.0
20260830201005 86 82 3.0 7.0 0.00 0.00 0.00 78 1015.2
20260830200005 85 81 1.0 4.0 0.00 0.00 0.00 79 1015.4
20260830195004 85 69 0.0 1.0 0.00 0.00 0.00 83 1015.7
20260830194005 84 68 0.0 2.0 0.00 0.00 0.00 86 1015.7
20260830193214 83 66 1.0 2.0 0.00 0.00 0.00 86 1015.9
20260830192005 83 75 0.0 2.0 0.00 0.00 0.00 85 1015.8
20260830191005 83 90 0.0 1.0 0.00 0.00 0.00 85 1015.9
20260830190005 83 139 1.0 3.0 0.00 0.00 0.00 83 1015.9
20260830185004 85 78 1.0 4.0 0.00 0.00 0.00 78 1016.1
20260830184214 85 79 1.0 3.0 0.00 0.00 0.00 76 1016.1
20260830183005 91 67 2.0 5.0 0.00 0.00 0.00 69 1015.8
20260830182004 93 353 2.0 7.0 0.00 0.00 0.00 61 1015.7
20260830181005 91 4 2.0 7.0 0.00 0.00 0.00 64 1016.1
20260830180005 93 335 1.0 4.0 0.00 0.00 0.00 63 1016.4
20260830175219 91 69 1.0 6.0 0.00 0.00 0.00 65 1016.2
20260830174005 90 344 2.0 5.0 0.00 0.00 0.00 67 1016.5
20260830173215 91 324 2.0 6.0 0.00 0.00 0.00 63 1016.7
20260830172216 92 321 2.0 6.0 0.00 0.00 0.00 64 1016.7
20260830171004 90 334 2.0 6.0 0.00 0.00 0.00 64 1016.8
20260830170005 91 86 1.0 3.0 0.00 0.00 0.00 65 1016.6
20260830165005 90 98 1.0 4.0 0.00 0.00 0.00 70 1016.8
20260830164005 90 96 1.0 3.0 0.00 0.00 0.00 67 1017.1
20260830163005 90 78 1.0 4.0 0.00 0.00 0.00 71 1017.2
20260830162004 88 83 2.0 6.0 0.00 0.00 0.00 73 1017.2
20260830161005 89 102 1.0 4.0 0.00 0.00 0.00 69 1017.3
20260830160005 91 197 1.0 2.0 0.00 0.00 0.00 66 1017.2
20260830155005 88 87 1.0 3.0 0.00 0.00 0.00 72 1017.4
20260830154005 87 77 2.0 4.0 0.00 0.00 0.00 73 1017.5
20260830153004 88 73 2.0 5.0 0.00 0.00 0.00 73 1017.6
20260830152005 87 74 2.0 7.0 0.00 0.00 0.00 75 1017.7
20260830151214 86 70 2.0 4.0 0.00 0.00 0.00 76 1017.8
20260830150005 86 69 2.0 6.0 0.00 0.00 0.00 77 1017.6
20260830145004 86 74 1.0 4.0 0.00 0.00 0.00 77 1017.5
20260830144004 87 73 1.0 4.0 0.00 0.00 0.00 74 1017.8
20260830143005 86 94 1.0 3.0 0.00 0.00 0.00 77 1017.9
20260830142005 86 110 1.0 2.0 0.00 0.00 0.00 79 1017.7
20260830141214 85 169 1.0 2.0 0.00 0.00 0.00 81 1017.5
20260830140005 83 90 1.0 4.0 0.00 0.00 0.00 85 1017.6
20260830135004 82 345 1.0 3.0 0.00 0.00 0.00 88 1017.6
20260830134005 82 78 0.0 1.0 0.00 0.00 0.00 88 1017.5
20260830133218 82 88 1.0 2.0 0.00 0.00 0.00 89 1017.7
20260830132005 81 155 0.0 1.0 0.00 0.00 0.00 90 1017.8
20260830131005 80 88 0.0 1.0 0.00 0.00 0.00 90 1017.6
20260830130005 80 73 0.0 1.0 0.00 0.00 0.00 92 1017.4
20260830125005 79 78 0.0 2.0 0.00 0.00 0.00 93 1017.5
20260830124005 78 78 1.0 3.0 0.00 0.00 0.00 93 1017.5
20260830123005 78 76 1.0 2.0 0.00 0.00 0.00 94 1017.3
20260830122005 77 77 0.0 2.0 0.00 0.00 0.00 96 1017.2
20260830121005 76 0 0.0 0.0 0.00 0.00 0.00 97 1017.0
20260830120006 76 0 0.0 0.0 0.00 0.00 0.00 97 1016.8
20260830115005 75 0 0.0 0.0 0.00 0.00 0.00 98 1017.0
20260830114005 75 0 0.0 0.0 0.00 0.00 0.00 98 1016.6
20260830113005 75 0 0.0 0.0 0.00 0.00 0.00 97 1016.7
20260830112005 75 0 0.0 0.0 0.00 0.00 0.00 97 1016.3
20260830111004 75 0 0.0 0.0 0.00 0.00 0.00 97 1016.4
20260830110006 75 0 0.0 0.0 0.00 0.00 0.00 97 1016.2
20260830105005 75 0 0.0 0.0 0.00 0.00 0.00 96 1015.9
20260830104005 76 0 0.0 0.0 0.00 0.00 0.00 96 1015.9
20260830103005 76 0 0.0 0.0 0.00 0.00 0.00 96 1015.7
20260830102005 76 0 0.0 0.0 0.00 0.00 0.00 95 1015.8
20260830101005 76 0 0.0 0.0 0.00 0.00 0.00 95 1016.0
20260830100218 76 0 0.0 0.0 0.00 0.00 0.00 95 1015.8
20260830095005 77 72 0.0 1.0 0.00 0.00 0.00 95 1015.5
20260830094005 76 71 0.0 2.0 0.00 0.00 0.00 95 1015.4
20260830093005 76 65 1.0 2.0 0.00 0.00 0.00 95 1015.4
20260830092005 76 64 0.0 2.0 0.00 0.00 0.00 96 1015.4
20260830091217 76 72 0.0 2.0 0.00 0.00 0.00 96 1015.5
20260830090006 76 72 0.0 1.0 0.00 0.00 0.00 96 1015.9
20260830085005 76 72 0.0 1.0 0.00 0.00 0.00 96 1015.9
20260830084004 76 72 0.0 1.0 0.00 0.00 0.00 96 1015.8
20260830083005 76 0 0.0 0.0 0.00 0.00 0.00 96 1015.9
20260830082005 76 0 0.0 0.0 0.00 0.00 0.00 96 1015.7
20260830081005 76 0 0.0 0.0 0.00 0.00 0.00 96 1016.1
20260830080006 76 0 0.0 0.0 0.00 0.00 0.00 96 1015.9
20260830075005 76 0 0.0 0.0 0.00 0.00 0.00 96 1016.0
20260830074005 76 0 0.0 0.0 0.00 0.00 0.00 96 1016.1
20260830073005 76 0 0.0 0.0 0.00 0.00 0.00 96 1016.2
20260830072005 76 0 0.0 0.0 0.00 0.00 0.00 96 1016.4
20260830071005 76 0 0.0 0.0 0.00 0.00 0.00 96 1016.5
20260830070005 76 0 0.0 0.0 0.00 0.00 0.00 96 1016.3
20260830065005 76 0 0.0 0.0 0.00 0.00 0.00 96 1016.3
20260830064217 76 297 0.0 0.0 0.00 0.00 0.00 96 1016.1
20260830063006 76 0 0.0 0.0 0.00 0.00 0.00 95 1016.3
20260830062005 76 0 0.0 0.0 0.00 0.00 0.00 95 1016.6
20260830061214 76 0 0.0 0.0 0.00 0.00 0.00 95 1016.8
20260830060006 77 0 0.0 0.0 0.00 0.00 0.00 94 1016.6
20260830055005 77 0 0.0 0.0 0.00 0.00 0.00 94 1016.3
20260830054005 77 0 0.0 0.0 0.00 0.00 0.00 94 1016.4
20260830053005 77 306 0.0 1.0 0.00 0.00 0.00 94 1016.3
20260830052005 77 0 0.0 0.0 0.00 0.00 0.00 94 1016.3
20260830051215 77 0 0.0 0.0 0.00 0.00 0.00 93 1016.3
20260830050006 78 80 0.0 1.0 0.00 0.00 0.00 93 1016.3
20260830045005 78 81 0.0 1.0 0.00 0.00 0.00 93 1015.8
20260830044006 78 82 1.0 3.0 0.00 0.00 0.00 92 1015.5
20260830043005 78 74 1.0 3.0 0.00 0.00 0.00 91 1015.3